{"data":{"norad_id":65872,"epoch":"2026-05-25T03:28:39.802368Z","epoch_age_seconds":55674,"freshness":"FRESH","line1":"1 65872U 25223U   26145.14490512  .00023619  00000+0  80699-3 0  9991","line2":"2 65872  53.1600 298.8826 0001357  75.2487 284.8664 15.30202393 35911","mean_motion":15.30202393,"eccentricity":0.0001357,"inclination_deg":53.16,"raan_deg":298.8826,"arg_perigee_deg":75.2487,"mean_anomaly_deg":284.8664,"bstar":0.00080699,"rev_number":3591,"period_min":94.10519854023,"perigee_km":474.27792545574,"apogee_km":476.13792326821,"semimajor_km":6853.344924362,"source":"CELESTRAK","updated_at":"2026-05-25T13:38:20.976086Z"}}